Regional Weather Roundup
Issued by NWS Little Rock, AR

Home | Current Version | Previous Version | Text Only | Print | Product List | Glossary Off
Versions: 1 2 3 4 5 6 7 8 9 10 11 12 13 14 15 16 17 18 19 20 21 22 23 24 25 26 27 28 29 30 31 32 33 34 35 36 37 38 39 40 41 42 43 44 45 46 47 48

000
ASUS44 KLZK 031705
RWRLZK

WEATHER ROUNDUP FOR ARKANSAS
NATIONAL WEATHER SERVICE LITTLE ROCK AR
1200 PM CDT FRI JUL 03 2015

NOTE: "FAIR" INDICATES FEW OR NO CLOUDS BELOW 12,000 FEET WITH NO
SIGNIFICANT WEATHER AND/OR OBSTRUCTIONS TO VISIBILITY.

ARZ001-003-010-029-031800-
NORTHWEST ARKANSAS

CITY           SKY/WX    TMP DP  RH WIND       PRES   REMARKS
FAYETTEVILLE   CLOUDY    76  72  87 W5        29.96R
FORT SMITH     CLOUDY    79  71  76 W9        29.93F
HARRISON       PTSUNNY   79  71  76 NW9       29.95S
BENTONVILLE    CLOUDY    79  68  69 W7        29.96S
ROGERS         PTSUNNY   77  70  79 W9        29.96S
SILOAM SPGS    PTSUNNY   79  70  73 W7        29.96S
HIGHFILL       CLOUDY    79  71  76 NW3       29.95S
SPRINGDALE     PTSUNNY   79  72  78 W9        29.97S
$$

ARZ004-005-016-031800-
NORTH CENTRAL ARKANSAS

CITY           SKY/WX    TMP DP  RH WIND       PRES   REMARKS
BATESVILLE     CLOUDY    73  70  88 SE6       29.93S
FLIPPIN        PTSUNNY   79  70  73 CALM      29.91S
MTN HOME       PTSUNNY   79  70  74 VRB3      29.92S
$$

ARZ040-041-031800-
WEST CENTRAL ARKANSAS

CITY           SKY/WX    TMP DP  RH WIND       PRES   REMARKS
MENA           CLOUDY    81  73  78 W8        29.98S HX  85
MOUNT IDA      CLOUDY    78  73  84 CALM      29.94F
$$

ARZ009-017-025-026-028-031800-
NORTHEAST ARKANSAS

CITY           SKY/WX    TMP DP  RH WIND       PRES   REMARKS
JONESBORO      CLOUDY    73  70  90 SW10      29.93S
NEWPORT        LGT RAIN  73  73 100 S12       29.94F
WALNUT RIDGE   CLOUDY    75  70  83 E3        29.93S
BLYTHEVILLE    CLOUDY    76  71  85 SW5       29.93R
$$

ARZ022-023-033-042-044-031800-
CENTRAL ARKANSAS

CITY           SKY/WX    TMP DP  RH WIND       PRES   REMARKS
LITTLE ROCK    LGT RAIN  73  69  87 CALM      29.98R FOG
N LITTLE ROCK  CLOUDY    72  72 100 SW5       29.96
JACKSONVILLE   LGT RAIN  73  72  96 S6        29.96R
SEARCY         LGT RAIN  74  72  93 SW7       29.96F
HOT SPRINGS    LGT RAIN  73  71  93 S8        29.99R
RUSSELLVILLE   LGT RAIN  73  71  93 SW7       29.94F FOG
$$

ARZ036-031800-
EAST ARKANSAS

CITY           SKY/WX    TMP DP  RH WIND       PRES   REMARKS
WEST MEMPHIS   LGT RAIN  74  72  93 W8G16     29.97R
$$

ARZ050-053-066-070-073-031800-
SOUTHWEST ARKANSAS

CITY           SKY/WX    TMP DP  RH WIND       PRES   REMARKS
ARKADELPHIA    RAIN      77  77 100 SW7       29.97F VSB 1
CAMDEN         CLOUDY    82  72  69 MISG      29.98S HX  87
TEXARKANA      CLOUDY    83  73  72 W13       29.98S HX  89
EL DORADO      PTSUNNY   85  72  65 SW12G21   30.00R HX  91
DE QUEEN       CLOUDY    76  75  97 W6        29.94F
$$

ARZ056-057-069-031800-
SOUTHEAST ARKANSAS

CITY           SKY/WX    TMP DP  RH WIND       PRES   REMARKS
PINE BLUFF     HVY RAIN  75  74  96 SW12G17   30.00R FOG
STUTTGART      CLOUDY    73  70  88 W14G21    29.97R
MONTICELLO     CLOUDY    81  75  82 W7        29.99R HX  87

$$





USA.gov is the U.S. government's official web portal to all federal, state and local government web resources and services.